STARLINK-37600, 69359

Orbit data source: Space-Track

STARLINK-37600, 69359 is a payload satellite owned by SpaceX/Seattle (US) in LEO that was launched on Thu, 04 Jun 2026 UTC via an FALCON 9 launch vehicle from the Air Force Eastern Test Range (AFETR). Payload-class satellites include a variety of spacecraft equipped with specific instruments for various scientific and technological missions. These include communications satellites like Starlink; space stations such as the ISS; scientific satellites like the Hubble; Earth observation satellites from companies like Planet Labs, Umbra, and HawkEye 360; GPS; miniature CubeSats for education and research; and military/defense satellites.

Loading next visibility...
Identifier
69359, 2026-123G
Orbit
LEO
Country
Flag of USUS
Related business
Manufacturer
SpaceX/Seattle
Mission
Operational spacecraft
Bus & Motor
STARLINK V2MO, Unknown motor
Mass
575 kg wet, ~530 kg dry
Launch date (UTC)
2026-06-04 (2 months ago)
Launch vehicle
FALCON 9
Launch site
Air Force Eastern Test Range (AFETR)
Object type
Payload
Rocket body
Debris
Shape & HBR
Unknown shape, 17.7 m
Radar Cross Section
Large (>1 m²)

Expand to show TLE details & history
Last TLE update: 11 hours ago

TLE from 11 hours ago
0 STARLINK-37600
1 69359U 26123G   26202.24064567  .00089612  00000-0  58193-3 0  9997
2 69359  53.1567  72.5335 0000957 134.6352 225.4747 15.75264302  7408
Epoch: 2026-07-21T05:46Z
TLE epoch observation values (Epoch: 2026-07-21T05:46:31.785Z)
Latitude
Longitude
46.88789°
Altitude
345.247 km
Speed
7.703 km/s
True Right ascension
04h 50m 08s
True Declination
0° 00' 00"
Sunlit
Object was in daylight at epoch
Visualization orbit readout
Latitude
Unknown
Longitude
Unknown
Altitude
Unknown
Speed
Unknown
Apparent Right ascension
Unknown
Apparent Declination
Unknown
Sunlit
N/A
Visualization observer readout
Local Sidereal Time
05:38:47
Azimuth
Unknown
Elevation
Unknown
Doppler factor
Unknown
Orbital elements
Apogee altitude
344.784 km
Perigee altitude
343.498 km
Semi-major axis
6,722.278 km
Eccentricity
0.0001
Inclination
53.1567°
RAAN
72.5335°
Arg. of periapsis
134.6352°
True anomaly
225.46688°
Mean anomaly
225.4747°
Eccentric anomaly
225.47079°
Mean motion
3.93793 °/min
Orbital period
91.42 mins
BSTAR
0.00058193
Loading maneuver chart data...
Computing Atmospheric mass density...
Loading historical data...
Loading historical data...
Loading historical data...
Loading historical data...
Loading historical data...
Loading historical data...
Loading historical data...

Documentation

Showing up to 5 results
|